Погода в Дубровичах

Россия / Рязанская область     54°39′19″N   39°56′01″E
темп.,
°C
ветер,
м/с
пор.,
м/с
влажн.,
%
обл.,
%
осадки,
мм/ч
давл.,
гПа
погр.,
м
22 апреля, чт
чт2200:00+4ююз3991100 0.0 1014318
03:00+4юз3793100 0.0 1015501
06:00+4ююз259741 0.0 1016260
09:00+7юз477847 0.0 1017722
12:00+10юз586996 0.3 10181233
15:00+10ююз487284 0.3 1018999
18:00+11ю387124 0.0 1018630
21:00+8ююв4128619 0.0 1018279
23 апреля, пт
пт2300:00+7ю4128677 0.0 1018290
03:00+7ю3108926 0.0 1018216
06:00+8ю41282100 0.0 1018328
09:00+13ю5126179 0.0 1018662
12:00+16ю694389 0.0 10172560
15:00+16ююв695177 0.0 10161887
18:00+15ююв49545 0.0 1015855
21:00+11ююв513675 0.0 1014431
24 апреля, сб
сб2400:00+9юв5157854 0.1 1012428
03:00+8юв5148465 0.1 1009367
06:00+8ююв51388100 0.2 1008544
09:00+3з5894100 0.6 1009466
12:00+5зюз3795100 1.8 1009829
15:00+7зсз3574100 2.4 1009959
18:00+8сз266898 0.5 1008864
21:00+4зюз38773 0.6 1009172
25 апреля, вс
вс2500:00+2зюз39843 0.0 1009226
03:00+1зюз310875 0.0 1010257
06:00+1зюз410885 0.0 1010405
09:00+5зюз586821 0.0 10111154
12:00+8зюз6851100 0.6 10111991
15:00+8зюз695168 1.7 10111996
18:00+7з47585 0.6 10111163
21:00+3юз310798 0.9 1013242
26 апреля, пн
пн2600:00+1юз38845 0.0 1013194
03:000юз27895 0.0 1013136
06:00+1ююз388814 0.0 1013278
09:00+5зюз466527 0.1 10121094
12:00+8зюз5750100 0.8 10111939
15:00+8зюз584397 1.3 10112399
18:00+7зюз465695 0.6 1010927
21:00+3зюз237747 1.0 101167